星链-1156 (STARLINK-1156 )

导读 | 星芒AI

STARLINK-1156 是 SpaceX Starlink 项目中的一颗低轨通信卫星,属于第十一组发射批次。该卫星于2021年10月31日通过猎鹰9号火箭成功送入近地轨道,旨在为全球用户提供高速互联网服务。它运行在约550公里高度的轨道上,具备先进的相控阵天线和激光通信技术,可实现与其他星链卫星的高速数据传输。作为星链星座的重要组成部分,STARLINK-1156 有助于提升网络覆盖范围和连接稳定性,特别是在偏远和网络基础设施薄弱的地区。

基本信息
目录编号:
45054
目录名称:
STARLINK-1156
国际标识:
2020-006L
轨道中心:
EARTH
卫星名称:
星链-1156
卫星全名:
星链-1156 (STARLINK-1156 )
卫星状态:
在轨 (已飞行2147 天)
发射日期:
2020-01-29 UTC
国别 :
美国 (US)
星等 :
--
轨道信息
数据来源 国际轨道数据
星历时间: 2025-12-14T14:40:00+0800
1天前
查看轨道信息
半长轴: 6925.341km
偏心率: 0.0001513
轨道倾角: 53.055°
近地点辐角 90.974°
升交点赤经 310.047°
平近点角 269.142°
近地点: 546.158km
远地点: 548.254km
周期: 95.592分钟
每日圈数: 15.064026
详细信息
固有亮度:
5
最大亮度:
2.5
卫星平台:
Starlink V1.0
覆盖范围:
全球
运营商:
太空探索技术公司
运营商所在国:
美国
制造商(研发单位):
太空探索技术公司
制造商所在国:
美国
使用方式:
暂无
卫星简介
星链(Starlink)计划是由太空探索技术公司(SpaceX)提出的一个巨型低轨卫星互联网星座项目,计划在2019年至2024年间在太空搭建由约1.2万颗卫星组成的“星链”网络,其中1584颗将部署在地球上空550千米处的近地轨道,并从2020年开始工作。该卫星仍在工作。
2D轨道图
3D轨道图
轨道高度分析图
轨道倾角分析图
轨道综合分析图
查看轨道综合分析图